Location: La Bastide
(43.1661°N, 1.2755°E)
Time: 00:55:18
(UTC+00:00)

Cosmos 1655 Rocket - Pass Details

Date: 13 December 2025
Orbit: 969 x 1006 km, 83.0° (Epoch: 19 January)

Event Time Altitude Azimuth Distance (km) Brightness Sun altitude
Rises 18:04:01 0° 349° (NNW) 3,681 7.0 -18.2°
Reaches altitude 10° 18:06:34 10° 346° (NNW) 2,726 6.3 -18.7°
Maximum altitude 18:12:42 63° 267° (W) 1,078 4.5 -19.7°
Drops below altitude 10° 18:18:47 10° 188° (S) 2,704 6.6 -20.8°
Sets 18:21:18 0° 185° (S) 3,648 7.2 -21.3°
